Location: ??????
(55.2000°N, 38.3000°E)
Time: 17:20:48
(UTC+00:00)

Cosmos 1980 - Pass Details

Date: 15 November 2025
Orbit: 836 x 847 km, 71.0° (Epoch: 14 December)

Event Time Altitude Azimuth Distance (km) Brightness Sun altitude
Exits shadow 01:40:35 51° 172° (S) 1,049 4.1 -28.0°
Maximum altitude 01:41:49 66° 118° (ESE) 922 3.9 -27.8°
Drops below altitude 10° 01:47:26 10° 37° (NE) 2,478 6.6 -27.0°
Sets 01:49:55 0° 35° (NE) 3,418 7.4 -26.7°
